TimeMST,TemperatureF,Dew PointF,Humidity,Sea Level PressureIn,VisibilityMPH,Wind Direction,Wind SpeedMPH,Gust SpeedMPH,PrecipitationIn,Events,Conditions,WindDirDegrees,DateUTC
12:53 AM,32.0,28.0,85,30.29,10.0,Calm,Calm,-,N/A,,Overcast,0,2012-11-15 07:53:00
1:53 AM,30.9,28.0,89,30.30,10.0,SSE,3.5,-,N/A,,Overcast,150,2012-11-15 08:53:00
2:53 AM,33.1,28.0,82,30.30,10.0,Calm,Calm,-,N/A,,Overcast,0,2012-11-15 09:53:00
3:53 AM,30.9,28.0,89,30.31,10.0,Calm,Calm,-,N/A,,Overcast,0,2012-11-15 10:53:00
4:53 AM,32.0,28.0,85,30.35,10.0,ENE,3.5,-,N/A,,Overcast,70,2012-11-15 11:53:00
5:53 AM,28.0,24.1,85,30.38,10.0,Calm,Calm,-,N/A,,Partly Cloudy,0,2012-11-15 12:53:00
6:53 AM,28.0,24.1,85,30.41,10.0,Calm,Calm,-,N/A,,Mostly Cloudy,0,2012-11-15 13:53:00
7:53 AM,30.0,26.1,85,30.43,10.0,Calm,Calm,-,N/A,,Clear,0,2012-11-15 14:53:00
8:53 AM,35.1,28.0,76,30.40,10.0,Calm,Calm,-,N/A,,Partly Cloudy,0,2012-11-15 15:53:00
9:53 AM,39.9,28.9,65,30.39,10.0,Calm,Calm,-,N/A,,Clear,0,2012-11-15 16:53:00
10:53 AM,42.1,28.9,60,30.38,10.0,Calm,Calm,-,N/A,,Clear,0,2012-11-15 17:53:00
11:53 AM,46.0,27.0,47,30.32,10.0,Variable,3.5,-,N/A,,Clear,0,2012-11-15 18:53:00
12:53 PM,48.9,25.0,39,30.29,10.0,Calm,Calm,-,N/A,,Clear,0,2012-11-15 19:53:00
1:53 PM,50.0,24.1,36,30.27,10.0,Calm,Calm,-,N/A,,Clear,0,2012-11-15 20:53:00
2:53 PM,48.9,25.0,39,30.28,10.0,Calm,Calm,-,N/A,,Clear,0,2012-11-15 21:53:00
3:53 PM,48.9,25.0,39,30.29,10.0,Calm,Calm,-,N/A,,Clear,0,2012-11-15 22:53:00
4:53 PM,41.0,27.0,57,30.33,10.0,West,3.5,-,N/A,,Clear,260,2012-11-15 23:53:00
5:53 PM,34.0,27.0,75,30.39,10.0,Calm,Calm,-,N/A,,Clear,0,2012-11-16 00:53:00
6:53 PM,32.0,25.0,75,30.40,10.0,Calm,Calm,-,N/A,,Clear,0,2012-11-16 01:53:00
7:53 PM,28.0,24.1,85,30.42,10.0,Calm,Calm,-,N/A,,Clear,0,2012-11-16 02:53:00
8:53 PM,27.0,23.0,85,30.41,10.0,Calm,Calm,-,N/A,,Clear,0,2012-11-16 03:53:00
9:53 PM,26.1,21.0,81,30.39,10.0,Calm,Calm,-,N/A,,Clear,0,2012-11-16 04:53:00
10:53 PM,21.9,19.0,89,30.38,10.0,Calm,Calm,-,N/A,,Clear,0,2012-11-16 05:53:00
11:53 PM,24.1,19.9,84,30.35,10.0,Calm,Calm,-,N/A,,Clear,0,2012-11-16 06:53:00